Time,TemperatureF,DewpointF,PressureIn,WindDirection,WindDirectionDegrees,WindSpeedMPH,WindSpeedGustMPH,Humidity,HourlyPrecipIn,Conditions,Clouds,dailyrainin,SolarRadiationWatts/m^2,SoftwareType,DateUTC
2013-07-24 00:00:00,56.9,50.5,29.73,NW,311,0.0,0.0,79,0.00,,,0.00,0,Wunderground v.1.15,2013-07-24 06:00:00,
2013-07-24 00:10:00,56.3,50.2,29.73,NW,311,0.0,0.0,80,0.00,,,0.00,0,Wunderground v.1.15,2013-07-24 06:10:00,
2013-07-24 00:30:00,55.9,50.2,29.73,NW,310,2.0,2.0,81,0.00,,,0.00,0,Wunderground v.1.15,2013-07-24 06:30:00,
2013-07-24 00:40:00,56.0,50.3,29.73,NW,308,1.0,1.0,81,0.00,,,0.00,0,Wunderground v.1.15,2013-07-24 06:40:00,
2013-07-24 01:10:00,54.4,49.3,29.72,NW,307,1.0,1.0,83,0.00,,,0.00,0,Wunderground v.1.15,2013-07-24 07:10:00,
2013-07-24 01:20:00,53.9,48.5,29.73,NW,307,0.0,0.0,82,0.00,,,0.00,0,Wunderground v.1.15,2013-07-24 07:20:00,
2013-07-24 01:40:00,53.1,48.7,29.73,SW,228,0.0,0.0,85,0.00,,,0.00,0,Wunderground v.1.15,2013-07-24 07:40:00,
2013-07-24 01:50:00,52.3,48.2,29.72,SW,228,0.0,0.0,86,0.00,,,0.00,0,Wunderground v.1.15,2013-07-24 07:50:00,
2013-07-24 02:01:00,51.7,48.0,29.72,SW,228,0.0,0.0,87,0.00,,,0.00,0,Wunderground v.1.15,2013-07-24 08:01:00,
2013-07-24 02:20:00,51.3,47.9,29.72,WSW,239,2.0,2.0,88,0.00,,,0.00,0,Wunderground v.1.15,2013-07-24 08:20:00,
2013-07-24 02:30:00,50.9,47.2,29.73,WSW,240,0.0,0.0,87,0.00,,,0.00,0,Wunderground v.1.15,2013-07-24 08:30:00,
2013-07-24 02:50:00,50.1,46.7,29.73,WSW,240,0.0,0.0,88,0.00,,,0.00,0,Wunderground v.1.15,2013-07-24 08:50:00,
2013-07-24 03:00:00,50.0,46.6,29.73,WSW,240,0.0,0.0,88,0.00,,,0.00,0,Wunderground v.1.15,2013-07-24 09:00:00,
2013-07-24 03:10:00,50.2,46.5,29.74,WSW,240,0.0,0.0,87,0.00,,,0.00,0,Wunderground v.1.15,2013-07-24 09:10:00,
2013-07-24 03:30:00,50.1,46.1,29.74,WSW,240,1.0,2.0,86,0.00,,,0.00,0,Wunderground v.1.15,2013-07-24 09:30:00,
2013-07-24 03:40:00,50.3,46.3,29.74,WSW,240,3.0,3.0,86,0.00,,,0.00,0,Wunderground v.1.15,2013-07-24 09:40:00,
2013-07-24 03:50:00,50.0,46.0,29.74,WSW,240,1.0,1.0,86,0.00,,,0.00,0,Wunderground v.1.15,2013-07-24 09:50:00,
2013-07-24 04:10:00,49.7,45.4,29.74,WSW,240,1.0,1.0,85,0.00,,,0.00,0,Wunderground v.1.15,2013-07-24 10:10:00,
2013-07-24 04:20:00,49.4,45.4,29.75,WSW,240,0.0,0.0,86,0.00,,,0.00,0,Wunderground v.1.15,2013-07-24 10:20:00,
2013-07-24 04:31:00,48.7,45.0,29.75,WSW,240,0.0,0.0,87,0.00,,,0.00,0,Wunderground v.1.15,2013-07-24 10:31:00,
2013-07-24 04:50:00,48.2,44.8,29.75,WSW,240,0.0,0.0,88,0.00,,,0.00,0,Wunderground v.1.15,2013-07-24 10:50:00,
2013-07-24 05:00:00,48.0,44.6,29.75,WSW,240,0.0,0.0,88,0.00,,,0.00,0,Wunderground v.1.15,2013-07-24 11:00:00,
2013-07-24 05:10:00,47.7,44.3,29.75,WSW,240,0.0,0.0,88,0.00,,,0.00,0,Wunderground v.1.15,2013-07-24 11:10:00,
2013-07-24 05:30:00,47.4,44.6,29.76,WSW,240,0.0,2.0,90,0.00,,,0.00,0,Wunderground v.1.15,2013-07-24 11:30:00,
2013-07-24 05:40:00,47.1,44.0,29.77,WSW,240,1.0,1.0,89,0.00,,,0.00,0,Wunderground v.1.15,2013-07-24 11:40:00,
2013-07-24 06:00:00,46.9,43.8,29.77,WSW,240,0.0,0.0,89,0.00,,,0.00,9,Wunderground v.1.15,2013-07-24 12:00:00,
2013-07-24 06:10:00,46.9,43.8,29.78,WSW,240,1.0,2.0,89,0.00,,,0.00,19,Wunderground v.1.15,2013-07-24 12:10:00,
2013-07-24 06:20:00,47.4,44.6,29.77,WSW,254,3.0,3.0,90,0.00,,,0.00,32,Wunderground v.1.15,2013-07-24 12:20:00,
2013-07-24 06:40:00,48.9,45.8,29.77,WNW,287,0.0,0.0,89,0.00,,,0.00,37,Wunderground v.1.15,2013-07-24 12:40:00,
2013-07-24 06:50:00,49.6,45.9,29.77,WNW,302,0.0,0.0,87,0.00,,,0.00,39,Wunderground v.1.15,2013-07-24 12:50:00,
2013-07-24 07:20:00,51.7,49.2,29.78,NW,315,0.0,0.0,91,0.00,,,0.00,127,Wunderground v.1.15,2013-07-24 13:20:00,
2013-07-24 07:30:00,53.1,50.2,29.77,NNW,333,0.0,0.0,90,0.00,,,0.00,81,Wunderground v.1.15,2013-07-24 13:30:00,
2013-07-24 07:50:00,57.2,52.1,29.78,NNW,333,0.0,0.0,83,0.00,,,0.00,332,Wunderground v.1.15,2013-07-24 13:50:00,
2013-07-24 08:00:00,60.3,52.0,29.78,NNW,334,0.0,0.0,74,0.00,,,0.00,381,Wunderground v.1.15,2013-07-24 14:00:00,
2013-07-24 08:20:00,63.7,52.5,29.77,NNE,13,0.0,0.0,67,0.00,,,0.00,519,Wunderground v.1.15,2013-07-24 14:20:00,
2013-07-24 08:30:00,65.4,52.5,29.76,NNE,13,0.0,0.0,63,0.00,,,0.00,246,Wunderground v.1.15,2013-07-24 14:30:00,
2013-07-24 08:40:00,66.1,53.1,29.76,ESE,111,0.0,3.0,63,0.00,,,0.00,615,Wunderground v.1.15,2013-07-24 14:40:00,
2013-07-24 09:10:00,65.9,53.4,29.76,SE,133,2.0,2.0,64,0.00,,,0.00,385,Wunderground v.1.15,2013-07-24 15:10:00,
2013-07-24 09:20:00,67.0,51.7,29.76,SE,128,2.0,7.0,58,0.00,,,0.00,682,Wunderground v.1.15,2013-07-24 15:20:00,
2013-07-24 09:50:00,69.9,54.4,29.75,SE,146,0.0,1.0,58,0.00,,,0.00,735,Wunderground v.1.15,2013-07-24 15:50:00,
2013-07-24 10:00:00,71.0,52.5,29.75,SSE,149,1.0,1.0,52,0.00,,,0.00,684,Wunderground v.1.15,2013-07-24 16:00:00,
2013-07-24 10:20:00,72.4,52.7,29.75,ENE,67,1.0,5.0,50,0.00,,,0.00,860,Wunderground v.1.15,2013-07-24 16:20:00,
2013-07-24 10:30:00,74.2,51.5,29.75,SE,132,2.0,2.0,45,0.00,,,0.00,847,Wunderground v.1.15,2013-07-24 16:30:00,
2013-07-24 10:40:00,74.3,53.3,29.75,East,82,4.0,4.0,48,0.00,,,0.00,575,Wunderground v.1.15,2013-07-24 16:40:00,
2013-07-24 11:00:00,75.6,50.9,29.75,East,84,5.0,6.0,42,0.00,,,0.00,802,Wunderground v.1.15,2013-07-24 17:00:00,
2013-07-24 11:10:00,75.8,49.1,29.75,ESE,123,9.0,9.0,39,0.00,,,0.00,939,Wunderground v.1.15,2013-07-24 17:10:00,
2013-07-24 11:21:00,75.5,50.1,29.75,ESE,103,8.0,8.0,41,0.00,,,0.00,547,Wunderground v.1.15,2013-07-24 17:21:00,
2013-07-24 11:30:00,76.0,49.9,29.75,ESE,102,7.0,10.0,40,0.00,,,0.00,984,Wunderground v.1.15,2013-07-24 17:30:00,
2013-07-24 11:40:00,76.4,48.2,29.75,East,82,9.0,14.0,37,0.00,,,0.00,663,Wunderground v.1.15,2013-07-24 17:40:00,
2013-07-24 11:50:00,76.3,48.8,29.75,East,80,8.0,8.0,38,0.00,,,0.00,983,Wunderground v.1.15,2013-07-24 17:50:00,
2013-07-24 12:20:00,77.4,49.8,29.73,East,82,8.0,8.0,38,0.00,,,0.00,937,Wunderground v.1.15,2013-07-24 18:20:00,
2013-07-24 12:30:00,77.3,51.8,29.73,ENE,74,9.0,9.0,41,0.00,,,0.00,953,Wunderground v.1.15,2013-07-24 18:30:00,
2013-07-24 12:50:00,76.9,48.6,29.72,SSE,160,5.0,5.0,37,0.00,,,0.00,638,Wunderground v.1.15,2013-07-24 18:50:00,
2013-07-24 13:00:00,76.1,49.3,29.72,SSE,148,4.0,4.0,39,0.00,,,0.00,766,Wunderground v.1.15,2013-07-24 19:00:00,
2013-07-24 13:30:00,79.4,52.3,29.71,SE,146,5.0,5.0,39,0.00,,,0.00,1074,Wunderground v.1.15,2013-07-24 19:30:00,
2013-07-24 13:40:00,77.8,49.4,29.70,NE,56,6.0,7.0,37,0.00,,,0.00,197,Wunderground v.1.15,2013-07-24 19:40:00,
2013-07-24 14:10:00,78.5,52.2,29.70,East,88,7.0,10.0,40,0.00,,,0.00,1081,Wunderground v.1.15,2013-07-24 20:10:00,
2013-07-24 14:20:00,77.8,50.2,29.69,ESE,117,7.0,11.0,38,0.00,,,0.00,288,Wunderground v.1.15,2013-07-24 20:20:00,
2013-07-24 14:31:00,77.4,50.5,29.69,ENE,78,13.0,13.0,39,0.00,,,0.00,251,Wunderground v.1.15,2013-07-24 20:31:00,
2013-07-24 14:50:00,76.6,51.8,29.69,ESE,110,12.0,12.0,42,0.00,,,0.00,462,Wunderground v.1.15,2013-07-24 20:50:00,
2013-07-24 15:00:00,76.0,51.9,29.68,East,98,11.0,11.0,43,0.00,,,0.00,207,Wunderground v.1.15,2013-07-24 21:00:00,
2013-07-24 15:10:00,74.8,50.8,29.68,ESE,119,9.0,9.0,43,0.00,,,0.00,204,Wunderground v.1.15,2013-07-24 21:10:00,
2013-07-24 15:30:00,73.4,54.7,29.68,East,96,4.0,4.0,52,0.00,,,0.00,221,Wunderground v.1.15,2013-07-24 21:30:00,
2013-07-24 15:40:00,73.9,51.8,29.68,East,87,4.0,11.0,46,0.00,,,0.00,195,Wunderground v.1.15,2013-07-24 21:40:00,
2013-07-24 16:00:00,74.1,53.7,29.67,East,98,4.0,4.0,49,0.00,,,0.00,939,Wunderground v.1.15,2013-07-24 22:00:00,
2013-07-24 16:10:00,74.1,55.9,29.67,SE,131,4.0,4.0,53,0.00,,,0.00,174,Wunderground v.1.15,2013-07-24 22:10:00,
2013-07-24 16:20:00,72.8,53.1,29.67,East,85,2.0,2.0,50,0.00,,,0.00,153,Wunderground v.1.15,2013-07-24 22:20:00,
2013-07-24 16:40:00,72.8,57.2,29.65,NW,313,0.0,0.0,58,0.00,,,0.00,260,Wunderground v.1.15,2013-07-24 22:40:00,
2013-07-24 16:50:00,73.2,54.5,29.65,SE,140,1.0,1.0,52,0.00,,,0.00,251,Wunderground v.1.15,2013-07-24 22:50:00,
2013-07-24 17:20:00,71.6,54.6,29.67,SSE,148,2.0,2.0,55,0.00,,,0.00,56,Wunderground v.1.15,2013-07-24 23:20:00,
2013-07-24 17:30:00,70.6,56.5,29.67,SSE,165,1.0,1.0,61,0.00,,,0.00,35,Wunderground v.1.15,2013-07-24 23:30:00,
2013-07-24 17:50:00,68.0,50.2,29.71,North,360,10.0,15.0,53,0.00,,,0.00,49,Wunderground v.1.15,2013-07-24 23:50:00,
2013-07-24 18:00:00,65.0,50.3,29.73,North,11,15.0,15.0,59,0.00,,,0.00,128,Wunderground v.1.15,2013-07-25 00:00:00,
2013-07-24 18:10:00,63.7,49.1,29.75,NE,34,11.0,11.0,59,0.00,,,0.00,32,Wunderground v.1.15,2013-07-25 00:10:00,
2013-07-24 18:30:00,62.1,49.4,29.76,ESE,104,8.0,8.0,63,0.00,,,0.00,74,Wunderground v.1.15,2013-07-25 00:30:00,
2013-07-24 18:40:00,60.7,50.5,29.78,ESE,109,10.0,11.0,69,0.00,,,0.00,98,Wunderground v.1.15,2013-07-25 00:40:00,
2013-07-24 18:51:00,58.1,48.4,29.78,ENE,74,8.0,8.0,70,0.00,,,0.00,60,Wunderground v.1.15,2013-07-25 00:51:00,
2013-07-24 19:10:00,57.2,49.3,29.78,SW,234,0.0,0.0,75,0.00,,,0.00,16,Wunderground v.1.15,2013-07-25 01:10:00,
2013-07-24 19:20:00,56.9,51.1,29.78,WSW,253,3.0,3.0,81,0.00,,,0.00,14,Wunderground v.1.15,2013-07-25 01:20:00,
2013-07-24 19:40:00,55.6,50.8,29.79,SSW,204,0.0,0.0,84,0.00,,,0.00,16,Wunderground v.1.15,2013-07-25 01:40:00,
2013-07-24 19:50:00,55.6,51.5,29.78,East,85,0.0,0.0,86,0.00,,,0.00,32,Wunderground v.1.15,2013-07-25 01:50:00,
2013-07-24 20:20:00,55.3,51.8,29.81,NW,309,0.0,0.0,88,0.00,,,0.00,0,Wunderground v.1.15,2013-07-25 02:20:00,
2013-07-24 20:30:00,55.4,52.2,29.81,NW,309,0.0,0.0,89,0.00,,,0.00,0,Wunderground v.1.15,2013-07-25 02:30:00,
2013-07-24 20:50:00,54.7,51.2,29.82,SSE,157,2.0,2.0,88,0.00,,,0.00,0,Wunderground v.1.15,2013-07-25 02:50:00,
2013-07-24 21:00:00,54.8,51.0,29.83,South,178,0.0,0.0,87,0.00,,,0.00,0,Wunderground v.1.15,2013-07-25 03:00:00,
2013-07-24 21:10:00,54.5,51.3,29.83,SSW,200,0.0,0.0,89,0.00,,,0.00,0,Wunderground v.1.15,2013-07-25 03:10:00,
2013-07-24 21:30:00,54.7,51.5,29.84,WNW,298,0.0,0.0,89,0.00,,,0.00,0,Wunderground v.1.15,2013-07-25 03:30:00,
2013-07-24 21:40:00,54.9,51.7,29.84,WNW,300,0.0,0.0,89,0.00,,,0.00,0,Wunderground v.1.15,2013-07-25 03:40:00,
2013-07-24 21:51:00,55.0,51.8,29.84,WNW,300,0.0,0.0,89,0.00,,,0.00,0,Wunderground v.1.15,2013-07-25 03:51:00,
2013-07-24 22:10:00,54.7,51.2,29.84,NW,309,1.0,1.0,88,0.00,,,0.00,0,Wunderground v.1.15,2013-07-25 04:10:00,
2013-07-24 22:20:00,54.4,50.9,29.84,NW,309,0.0,0.0,88,0.00,,,0.00,0,Wunderground v.1.15,2013-07-25 04:20:00,
2013-07-24 22:40:00,53.8,50.6,29.84,NW,309,0.0,0.0,89,0.00,,,0.00,0,Wunderground v.1.15,2013-07-25 04:40:00,
2013-07-24 22:50:00,53.3,50.1,29.84,West,279,0.0,0.0,89,0.00,,,0.00,0,Wunderground v.1.15,2013-07-25 04:50:00,
2013-07-24 23:01:00,53.3,49.8,29.84,SW,230,1.0,1.0,88,0.00,,,0.00,0,Wunderground v.1.15,2013-07-25 05:01:00,
2013-07-24 23:20:00,54.4,51.2,29.85,NW,313,1.0,2.0,89,0.00,,,0.00,0,Wunderground v.1.15,2013-07-25 05:20:00,
2013-07-24 23:30:00,54.1,50.9,29.85,NW,313,3.0,3.0,89,0.00,,,0.00,0,Wunderground v.1.15,2013-07-25 05:30:00,